This is the latest recevied weather packets stored in our database for station/object AE5HO. If no packets are shown the sender has not sent any weather packets the latest 10 day(s).
| Time | Temp. | Humidity | Pressure | Rain* | Wind** | Luminosity | Snow |
|---|---|---|---|---|---|---|---|
| 1787587498 | 36.11° C | 40% | 1015.1 hPa | 0 mm | - | 599 W/m² | - |
| 1787587196 | 36.11° C | 40% | 1015.3 hPa | 0 mm | - | 593 W/m² | - |
| 1787586891 | 35.56° C | 42% | 1015.1 hPa | 0 mm | - | 520 W/m² | - |
| 1787586587 | 35.56° C | 41% | 1015.1 hPa | 0 mm | - | 552 W/m² | - |
| 1787586282 | 35.56° C | 42% | 1015.3 hPa | 0 mm | - | 522 W/m² | - |
| 1787585979 | 35.56° C | 42% | 1015.1 hPa | 0 mm | - | 489 W/m² | - |
| 1787585678 | 35° C | 41% | 1015.3 hPa | 0 mm | - | 486 W/m² | - |
| 1787585378 | 35° C | 42% | 1015.2 hPa | 0 mm | - | 456 W/m² | - |
| 1787585073 | 35° C | 43% | 1015.2 hPa | 0 mm | - | 427 W/m² | - |
| 1787584768 | 34.44° C | 43% | 1015.3 hPa | 0 mm | - | 190 W/m² | - |
| 1787584466 | 34.44° C | 43% | 1015.1 hPa | 0 mm | - | 265 W/m² | - |
| 1787584161 | 34.44° C | 44% | 1015.1 hPa | 0 mm | - | 356 W/m² | - |
| 1787583861 | 33.89° C | 44% | 1015 hPa | 0 mm | - | 89 W/m² | - |
| 1787583555 | 33.89° C | 45% | 1014.9 hPa | 0 mm | - | 265 W/m² | - |
| 1787583254 | 33.89° C | 45% | 1014.9 hPa | 0 mm | - | 115 W/m² | - |
| 1787582949 | 33.33° C | 45% | 1015 hPa | 0 mm | - | 100 W/m² | - |
| 1787582644 | 33.33° C | 46% | 1014.8 hPa | 0 mm | - | 116 W/m² | - |
| 1787582341 | 32.78° C | 46% | 1015 hPa | 0 mm | - | 184 W/m² | - |
| 1787582039 | 32.78° C | 46% | 1014.9 hPa | 0 mm | - | 55 W/m² | - |
| 1787581735 | 32.78° C | 47% | 1015.1 hPa | 0 mm | - | 51 W/m² | - |
| 1787581430 | 32.78° C | 48% | 1014.9 hPa | 0 mm | - | 50 W/m² | - |
| 1787581124 | 32.22° C | 48% | 1015 hPa | 0 mm | - | 48 W/m² | - |
| 1787580820 | 31.67° C | 49% | 1014.8 hPa | 0 mm | - | 48 W/m² | - |
| 1787580517 | 31.67° C | 49% | 1015.3 hPa | 0 mm | - | 44 W/m² | - |
| 1787580216 | 31.67° C | 50% | 1015 hPa | 0 mm | - | 44 W/m² | - |
* Rain latest hour (hover to see other rain measurements)
** Current wind speed in m/s (hover to see current wind gust speed)